This is the latest recevied weather packets stored in our database for station/object F6BIJ-13. If no packets are shown the sender has not sent any weather packets the latest 10 day(s).
| Time | Temp. | Humidity | Pressure | Rain* | Wind** | Luminosity | Snow |
|---|---|---|---|---|---|---|---|
| 1778191597 | 13.33° C | 83% | 1014.9 hPa | 0 mm | - | - | - |
| 1778191237 | 13.33° C | 83% | 1014.9 hPa | 0 mm | - | - | - |
| 1778190877 | 13.33° C | 82% | 1014.8 hPa | 0 mm | - | - | - |
| 1778190517 | 13.33° C | 82% | 1014.8 hPa | 0 mm | - | - | - |
| 1778190157 | 13.33° C | 80% | 1014.7 hPa | 0 mm | - | - | - |
| 1778189797 | 13.89° C | 76% | 1014.7 hPa | 0 mm | - | - | - |
| 1778189437 | 14.44° C | 74% | 1014.7 hPa | 0 mm | - | - | - |
| 1778189077 | 13.33° C | 74% | 1014.5 hPa | 0 mm | - | - | - |
| 1778188717 | 13.33° C | 77% | 1014.5 hPa | 0 mm | - | - | - |
| 1778188357 | 13.33° C | 80% | 1014.5 hPa | 0 mm | - | - | - |
| 1778187997 | 13.33° C | 83% | 1014.6 hPa | 0 mm | - | - | - |
| 1778187638 | 12.78° C | 84% | 1014.7 hPa | 0 mm | - | - | - |
| 1778187277 | 12.78° C | 84% | 1014.6 hPa | 0 mm | - | - | - |
| 1778186916 | 12.78° C | 85% | 1014.6 hPa | 0 mm | - | - | - |
| 1778186556 | 12.78° C | 84% | 1014.6 hPa | 0 mm | - | - | - |
| 1778186197 | 12.78° C | 85% | 1014.5 hPa | 0 mm | - | - | - |
| 1778185837 | 12.78° C | 85% | 1014.5 hPa | 0 mm | - | - | - |
| 1778185477 | 12.22° C | 84% | 1014.4 hPa | 0 mm | - | - | - |
| 1778185117 | 13.33° C | 83% | 1014.2 hPa | 0 mm | - | - | - |
| 1778184756 | 12.78° C | 82% | 1014.3 hPa | 0 mm | - | - | - |
| 1778184397 | 13.33° C | 82% | 1014.2 hPa | 0 mm | - | - | - |
| 1778184037 | 13.89° C | 81% | 1014.1 hPa | 0 mm | - | - | - |
| 1778183677 | 13.89° C | 79% | 1014 hPa | 0 mm | - | - | - |
| 1778183317 | 14.44° C | 78% | 1013.9 hPa | 0 mm | - | - | - |
| 1778182957 | 14.44° C | 78% | 1013.9 hPa | 0 mm | - | - | - |
* Rain latest 24 hours (hover to see other rain measurements)
** Current wind speed in m/s (hover to see current wind gust speed)